Regional Weather Roundup
Issued by NWS

Home | Current Version | Previous Version | Text Only | Print | Product List | Glossary Off
Versions: 1 2 3 4 5 6 7 8 9 10 11 12 13 14 15 16 17 18 19 20 21 22 23 24 25 26 27 28

000
ASUS45 KSLC 200610
RWRUT

UTAH REGIONAL WEATHER ROUNDUP
NATIONAL WEATHER SERVICE SALT LAKE CITY UT
1100 PM MST SUN NOV 19 2017

UTZ001>011-023>025-200700-

NORTHERN UTAH

CITY           SKY/WX    TMP DP  RH WIND       PRES   REMARKS
BRIGHAM CITY   CLOUDY    29  25  84 CALM      30.11F
HILL AFB       CLOUDY    32  23  68 E13       30.09R WCI  23
LOGAN          CLOUDY    30  25  81 CALM      30.09S
OGDEN          MOCLDY    32  24  72 S6        30.09S WCI  26
SALT LAKE CITY MOCLDY    35  31  85 CALM      30.10S
TOOELE VALLEY  CLOUDY    30  28  93 SE6       30.10S WCI  24
WENDOVER       CLOUDY    31  25  78 CALM      30.10F
HEBER CITY       N/A     27  21  80 CALM      30.10S
WEST JORDAN    CLOUDY    31  28  88 CALM      30.10F

$$

UTZ011>015-024>027-200700-

CENTRAL/NORTHEAST UTAH

CITY           SKY/WX    TMP DP  RH WIND       PRES   REMARKS
PROVO AIRPORT  MOCLDY    32  28  85 CALM      30.12S
MOAB/CANYONLAN MOCLDY    25   5  42 W3        30.21R
DELTA          CLOUDY    30  19  64 E6        30.11F WCI  24
PRICE          MOCLDY    28   8  43 NE7       30.19S WCI  21
RICHFIELD      CLEAR     28  23  80 CALM      30.16S
ROOSEVELT      CLOUDY    21  14  73 SW7       30.18S WCI  13
VERNAL         CLOUDY    22  12  65 W5        30.15F WCI  16

$$

UTZ013>016-019>022-027-200700-

SOUTHERN UTAH

CITY           SKY/WX    TMP DP  RH WIND       PRES   REMARKS
BRYCE CANYON   PTCLDY    15   7  70 W6        30.23S WCI   6
CEDAR CITY     PTCLDY    40   5  23 SE6       30.14S
MILFORD        CLOUDY    39  14  36 SW16      30.10F WCI  30
ST GEORGE      MOCLDY    46   7  20 SE3       30.14S
HANKSVILLE     MOCLDY    27   5  39 SE3       30.23F
KANAB          CLEAR     36   5  27 N15       30.22F WCI  26
BLANDING         N/A     29   3  33 NE6       30.27F WCI  23

$$

REGIONAL REPORTS     COLORADO/ARIZONA

CITY           SKY/WX    TMP DP  RH WIND       PRES   REMARKS
CRAIG, CO      CLOUDY    17  12  80 SW5       30.14S WCI  10
GRAND JUNCTION CLOUDY    29  16  58 E7        30.21F WCI  22
RIFLE, CO      CLOUDY    25  18  74 CALM      30.22F
MONTROSE, CO   CLOUDY    24  19  81 S3        30.25F
CORTEZ, CO     CLOUDY    16   9  74 E6        30.21F WCI   7
COLORADO CITY    N/A     28   7  40 E7        30.20S WCI  21
PAGE, AZ       PTCLDY    36  13  38 CALM      30.19S
GRAND CANYON   PTCLDY    18  -2  41 CALM      30.22S
KINGMAN, AZ    PTCLDY    36   5  27 S3        30.12S
FLAGSTAFF, AZ  PTCLDY    22   1  40 CALM      30.22F

$$

REGIONAL REPORTS    NEVADA/IDAHO/WYOMING

CITY           SKY/WX    TMP DP  RH WIND       PRES   REMARKS
LAS VEGAS, NV  CLOUDY    48   9  20 S5        30.08F
ELY, NY        CLOUDY    30   1  29 S8        30.14S WCI  22
ELKO, NV       CLOUDY    33  27  78 NE3       30.06F
POCATELLO, ID  CLOUDY    30  22  72 N5        30.01F WCI  25
BURLEY, ID     PTCLDY    36  24  62 VRB3      29.99R
FORT BRIDGER,    N/A     24  13  61 W8        30.09S WCI  16
EVANSTON, WY   CLOUDY    26  18  71 SW8       30.08S WCI  18
ROCK SPRINGS,  CLOUDY    21  15  78 SW7       30.06F WCI  12

$$




USA.gov is the U.S. government's official web portal to all federal, state and local government web resources and services.